Location: �clusier
(49.9361°N, 2.7869°E)
Time: 06:40:57
(UTC+00:00)

ATLAS CENTAUR R/B - Pass Details

Date: 31 October 2021
Orbit: 452 x 688 km, 64.7° (Epoch: 06 December)

Event Time Altitude Azimuth Distance (km) Brightness Sun altitude
Exits shadow 05:43:22 - 324° (NW) 2,530 4.3 -9.1°
Reaches altitude 10° 05:45:13 10° 339° (NNW) 2,023 3.9 -8.8°
Maximum altitude 05:48:14 17° 20° (NNE) 1,647 3.8 -8.3°
Drops below altitude 10° 05:51:21 10° 61° (ENE) 2,097 5.0 -7.8°
Sets 05:54:30 0° 81° (E) 3,037 6.6 -7.3°
